Weather in Mollem

India     15°13′32″N   74°09′37″E
temp.,
°C
wind,
m/s
gust,
m/s
humid.,
%
clouds,
%
prec.,
mm/h
press.,
hPa
HPBL,
m
19 september, sun
sun1923:30+22ssw009738 0.3 101114
02:30+22sse1197100 0.1 101028
05:30+21ese119799 0.1 101132
08:30+25w018647 0.0 1013351
11:30+28w236989 0.1 10121146
14:30+28w3470100 0.4 10091105
17:30+25w2484100 0.5 1010481
20:30+23w1194100 0.1 101230
20 september, mon
mon2023:30+22wsw0096100 0.1 101220
02:30+22ne0198100 0.0 101027
05:30+22e0098100 0.0 101027
08:30+24w1290100 0.0 1013245
11:30+27w2375100 0.1 1012932
14:30+28wnw347299 0.9 10081123
17:30+25wnw2487100 1.3 1009599
20:30+23w129764 0.3 101168
21 september, tue
tue2123:30+22wsw1198100 0.6 101157
02:30+22sw1198100 0.2 101051
05:30+22sw119896 0.3 101083
08:30+24w129058 0.3 1012379
11:30+27w247976 1.3 1011940
14:30+26wnw368691 2.6 1008783
17:30+24wnw269398 4.8 1008570
20:30+22w139797 0.7 1010140
22 september, wed
wed2223:30+22wsw139799 1.1 1010139
02:30+22wsw1398100 0.4 1008162
05:30+21w129899 0.9 1009136
08:30+23w249797 0.4 1010336
11:30+24wnw3691100 2.2 1010661
14:30+23wnw269399 0.8 1008538
17:30+22wnw1697100 1.0 1008492
20:30+21w139870 0.1 1010170
23 september, thu
thu2323:30+21ssw139997 0.1 1010140
02:30+21sw149996 0.5 1008257
05:30+22wsw149993 1.1 1008240
08:30+23w149477 0.6 1010349
11:30+24wsw258574 1.1 1010672
14:30+26w368087 0.6 1007840
17:30+23w2591100 1.7 1008352
20:30+22sw0196100 0.7 101082